Location: Chippewa Lake
(41.0698°N, 81.9010°W)
Time: 02:15:40
(UTC+00:00)

IRS-1D - Pass Details

Date: 09 May 2021
Orbit: 740 x 816 km, 98.6° (Epoch: 22 June)

Event Time Altitude Azimuth Distance (km) Brightness Sun altitude
Rises 08:36:55 0° 4° (N) 3,337 7.5 -16.4°
Reaches altitude 10° 08:39:25 10° 357° (N) 2,408 6.6 -16.0°
Maximum altitude 08:44:14 36° 292° (WNW) 1,270 4.4 -15.4°
Enters shadow 08:46:57 22° 242° (WSW) 1,712 4.7 -15.0°
